Weather History for KCEF - August, 2012

Change the Weather History Date:

Friday, August 10, 2012

  Actual Average Record
Temperature  
Mean Temperature 75 °F -  
Max Temperature 83 °F 80 °F 89 °F (2001)
Min Temperature 68 °F 60 °F 48 °F (1999)
Cooling Degree Days 10    
Growing Degree Days 25 (Base 50)    
Moisture  
Dew Point 71 °F    
Average Humidity 89    
Maximum Humidity 100    
Minimum Humidity 66    
Precipitation  
Precipitation 1.07 in - - ()
Sea Level Pressure  
Sea Level Pressure 29.85 in    
Wind  
Wind Speed 6 mph (SSE)    
Max Wind Speed 22 mph    
Max Gust Speed 24 mph    
Visibility 8 miles    
Events Rain , Thunderstorm    
Averages and records for this station are not official NWS values.
T = Trace of Precipitation, MM = Missing Value Source: NWS Daily Summary

Daily Weather History Graph

Daily Weather History Graph

Search for Another Location

Airport or City:

Trip Planner

Search our weather history database for the weather conditions in past years. The results will help you decide how hot, cold, wet, or windy it might be!

Date:

Astronomy

Aug. 10, 2012 Rise Set
Actual Time 5:52 AM EDT 7:57 PM EDT
Civil Twilight 5:22 AM EDT 8:27 PM EDT
Nautical Twilight 4:44 AM EDT 9:05 PM EDT
Astronomical Twilight 4:03 AM EDT 9:46 PM EDT
Moon No Moon Rise 2:36 PM EDT (8/10)
Length of Visible Light 15h 05m
Length of Day
14h 04m
Last Quarter, 42% of the Moon is Illuminated
Aug 10
Last Quarter
Aug 17
New
Aug 24
First Quarter
Aug 31
Full
Sep 8
Last Quarter

Hourly Weather History & Observations

Time (EDT) Temp. Heat Index Dew Point Humidity Pressure Visibility Wind Dir Wind Speed Gust Speed Precip Events Conditions
12:55 AM 73.8 °F - 71.4 °F 92% 29.89 in 10.0 mi South 6.9 mph - N/A   Partly Cloudy
1:45 AM 73.4 °F - 71.6 °F 94% 29.88 in 10.0 mi SSE 5.8 mph - N/A   Mostly Cloudy
1:52 AM 73.4 °F - 71.6 °F 94% 29.88 in 10.0 mi SSE 4.6 mph - N/A   Mostly Cloudy
1:55 AM 73.4 °F - 71.8 °F 95% 29.88 in 10.0 mi SSE 5.8 mph - N/A   Mostly Cloudy
2:33 AM 73.4 °F - 71.6 °F 94% 29.88 in 10.0 mi South 9.2 mph - N/A   Overcast
2:49 AM 73.4 °F - 71.6 °F 94% 29.88 in 10.0 mi South 8.1 mph - N/A   Overcast
2:55 AM 74.1 °F - 71.6 °F 92% 29.88 in 10.0 mi South 8.1 mph - N/A   Overcast
2:56 AM 73.4 °F - 71.6 °F 94% 29.88 in 10.0 mi South 8.1 mph - N/A   Overcast
3:10 AM 73.4 °F - 71.6 °F 94% 29.88 in 10.0 mi South 5.8 mph - N/A   Overcast
3:15 AM 75.2 °F - 71.6 °F 89% 29.88 in 10.0 mi South 6.9 mph - N/A   Overcast
3:16 AM 75.2 °F - 71.6 °F 89% 29.88 in 10.0 mi South 6.9 mph - N/A   Overcast
3:17 AM 75.2 °F - 71.6 °F 89% 29.88 in 10.0 mi SSE 6.9 mph - N/A   Overcast
3:55 AM 74.7 °F - 71.8 °F 91% 29.88 in 10.0 mi South 5.8 mph - N/A   Overcast
4:08 AM 75.2 °F - 71.6 °F 89% 29.88 in 10.0 mi South 6.9 mph - N/A   Overcast
4:39 AM 75.2 °F - 71.6 °F 89% 29.89 in 10.0 mi SSE 5.8 mph - N/A   Overcast
4:41 AM 75.2 °F - 71.6 °F 89% 29.89 in 10.0 mi South 5.8 mph - N/A   Overcast
4:48 AM 75.2 °F - 71.6 °F 89% 29.88 in 10.0 mi SSE 4.6 mph - N/A   Overcast
4:55 AM 74.5 °F - 71.4 °F 90% 29.89 in 10.0 mi SSE 4.6 mph - N/A   Overcast
5:14 AM 75.2 °F - 71.6 °F 89% 29.89 in 10.0 mi South 3.5 mph - N/A   Overcast
5:26 AM 75.2 °F - 71.6 °F 89% 29.90 in 10.0 mi SSE 4.6 mph - N/A   Overcast
5:55 AM 74.5 °F - 71.6 °F 91% 29.90 in 10.0 mi South 3.5 mph - N/A   Overcast
6:55 AM 75.2 °F - 71.4 °F 88% 29.90 in 10.0 mi Calm Calm - N/A   Overcast
7:27 AM 77.0 °F - 71.6 °F 83% 29.89 in 10.0 mi Variable 3.5 mph - N/A   Mostly Cloudy
7:37 AM 77.0 °F - 71.6 °F 83% 29.89 in 10.0 mi SE 5.8 mph - N/A   Mostly Cloudy
7:38 AM 77.0 °F - 71.6 °F 83% 29.89 in 10.0 mi SE 4.6 mph - N/A   Mostly Cloudy
7:48 AM 77.0 °F - 71.6 °F 83% 29.89 in 10.0 mi SE 3.5 mph - N/A   Mostly Cloudy
7:52 AM 77.0 °F - 71.6 °F 83% 29.89 in 10.0 mi SE 3.5 mph - N/A   Mostly Cloudy
7:55 AM 77.2 °F - 72.1 °F 84% 29.89 in 10.0 mi Variable 3.5 mph - N/A   Mostly Cloudy
8:46 AM 77.0 °F - 71.6 °F 83% 29.89 in 10.0 mi SE 3.5 mph - N/A   Overcast
8:55 AM 78.3 °F - 72.0 °F 81% 29.89 in 10.0 mi SE 4.6 mph - N/A   Overcast
9:29 AM 78.8 °F - 71.6 °F 78% 29.89 in 10.0 mi SSE 10.4 mph - N/A   Mostly Cloudy
9:30 AM 78.8 °F - 71.6 °F 78% 29.89 in 10.0 mi SSE 10.4 mph - N/A   Mostly Cloudy
9:33 AM 80.6 °F 84.6 °F 71.6 °F 74% 29.89 in 10.0 mi SSE 8.1 mph - N/A   Mostly Cloudy
9:34 AM 80.6 °F 84.6 °F 71.6 °F 74% 29.89 in 10.0 mi South 8.1 mph - N/A   Scattered Clouds
9:35 AM 80.6 °F 84.6 °F 71.6 °F 74% 29.89 in 10.0 mi South 8.1 mph - N/A   Mostly Cloudy
9:37 AM 80.6 °F 84.6 °F 71.6 °F 74% 29.89 in 10.0 mi SSE 5.8 mph - N/A   Scattered Clouds
9:55 AM 81.0 °F 84.9 °F 71.2 °F 72% 29.89 in 10.0 mi SSE 8.1 mph - N/A   Scattered Clouds
10:38 AM 82.4 °F 87.2 °F 71.6 °F 70% 29.88 in 10.0 mi SSE 9.2 mph - N/A Thunderstorm Overcast
10:55 AM 82.2 °F 86.4 °F 70.5 °F 68% 29.87 in 10.0 mi SSE 6.9 mph - N/A Thunderstorm Overcast
11:55 AM 82.9 °F 87.2 °F 70.7 °F 66% 29.86 in 10.0 mi Variable 4.6 mph - N/A Rain , Thunderstorm Light Rain
12:27 PM 82.4 °F 87.2 °F 71.6 °F 70% 29.85 in 10.0 mi South 8.1 mph 17.3 mph N/A Thunderstorm Overcast
12:55 PM 82.4 °F 86.5 °F 70.5 °F 67% 29.83 in 10.0 mi Variable 3.5 mph - 0.00 in Rain , Thunderstorm Light Rain
1:00 PM 80.6 °F 84.6 °F 71.6 °F 74% 29.82 in 6.0 mi SSE 10.4 mph - N/A Rain , Thunderstorm Light Thunderstorms and Rain
1:41 PM 73.4 °F - 69.8 °F 88% 29.85 in 7.0 mi Calm Calm - N/A Rain Light Rain
1:55 PM 72.3 °F - 70.3 °F 93% 29.85 in 10.0 mi NW 9.2 mph - 0.04 in Rain Light Rain
2:55 PM 70.9 °F - 68.7 °F 93% 29.86 in 6.0 mi North 5.8 mph - 0.01 in Rain Light Rain
3:13 PM 69.8 °F - 69.8 °F 100% 29.85 in 6.0 mi NNE 4.6 mph - N/A Rain Light Rain
3:55 PM 70.0 °F - 69.4 °F 98% 29.82 in 7.0 mi NNE 6.9 mph - 0.07 in Rain Light Rain
4:55 PM 70.5 °F - 70.0 °F 98% 29.81 in 2.5 mi NNE 5.8 mph - 0.14 in Rain Rain
5:52 PM 71.6 °F - 71.6 °F 100% 29.77 in 2.0 mi North 9.2 mph - N/A Rain Heavy Rain
5:55 PM 72.1 °F - 70.7 °F 95% 29.77 in 2.0 mi North 8.1 mph - 0.21 in Rain Heavy Rain
5:59 PM 71.6 °F - 69.8 °F 94% 29.77 in 1.2 mi North 10.4 mph - N/A Rain Heavy Rain
6:08 PM 71.6 °F - 71.6 °F 100% 29.78 in 0.8 mi WNW 11.5 mph - N/A Rain Heavy Rain
6:27 PM 69.8 °F - 68.0 °F 94% 29.76 in 1.0 mi NNE 17.3 mph - N/A Rain Heavy Rain
6:34 PM 69.8 °F - 69.8 °F 100% 29.73 in 1.5 mi NNE 21.9 mph - N/A Rain Heavy Rain
6:41 PM 69.8 °F - 68.0 °F 94% 29.73 in 3.0 mi NNE 19.6 mph - N/A Rain Rain
6:43 PM 69.8 °F - 68.0 °F 94% 29.73 in 5.0 mi NNE 17.3 mph 24.2 mph N/A Rain Light Rain
6:45 PM 69.8 °F - 68.0 °F 94% 29.74 in 5.0 mi NNE 17.3 mph 24.2 mph N/A Rain Light Rain
6:55 PM 70.0 °F - 67.8 °F 93% 29.75 in 10.0 mi North 12.7 mph - 0.60 in   Mostly Cloudy
7:55 PM 70.0 °F - 69.4 °F 98% 29.80 in 10.0 mi SW 6.9 mph - N/A   Mostly Cloudy
8:55 PM 69.6 °F - 68.9 °F 98% 29.81 in 10.0 mi Calm Calm - N/A   Overcast
9:00 PM 69.8 °F - 69.8 °F 100% 29.81 in 10.0 mi Calm Calm - N/A   Overcast
9:55 PM 69.3 °F - 68.7 °F 98% 29.82 in 10.0 mi Calm Calm - N/A   Mostly Cloudy
10:47 PM 68.0 °F - 68.0 °F 100% 29.83 in 2.5 mi Calm Calm - N/A   Scattered Clouds
10:52 PM 68.0 °F - 68.0 °F 100% 29.83 in 3.0 mi Calm Calm - N/A   Scattered Clouds
10:55 PM 68.7 °F - 68.4 °F 99% 29.83 in 4.0 mi Calm Calm - N/A   Scattered Clouds
11:01 PM 68.0 °F - 68.0 °F 100% 29.83 in 2.5 mi Calm Calm - N/A   Mostly Cloudy
11:09 PM 68.0 °F - 68.0 °F 100% 29.83 in 3.0 mi Calm Calm - N/A   Mostly Cloudy
11:55 PM 69.1 °F - 68.7 °F 99% 29.83 in 10.0 mi Calm Calm - N/A   Overcast